Wind_Speed
23 22 22 22 22 21 21 21 22 22 21 21 21 20 18 17 17 17 17 19 20 20 19 19 19 19 18 18 19 18 15 15 18 21 23 24 23 22 23 23 24 24
18 18 17 17 17 18 19 20 21 21 20 20 20 20 19 18 18 19 20 21 22 22 21 20 20 20 20 19 20 20 17 15 17 20 23 24 23 23 23 23 23 25
14 13 13 14 15 16 17 18 19 20 20 19 20 21 20 19 19 20 22 23 24 22 21 21 22 21 20 20 20 19 19 17 17 19 23 24 23 24 24 24 24 25
12 13 13 14 14 14 14 15 17 18 19 20 21 22 22 21 19 19 22 24 25 23 20 19 21 21 20 21 21 19 18 18 18 19 21 23 24 25 25 25 24 24
13 14 14 14 14 13 13 13 15 17 18 20 21 23 24 23 21 19 21 23 23 20 17 15 17 20 21 22 23 21 19 20 20 18 19 22 23 25 26 27 26 26
14 14 14 14 13 12 13 14 15 16 17 20 22 23 24 24 23 20 20 21 21 17 14 13 15 19 21 23 24 23 22 22 21 20 19 20 21 23 25 27 28 28
15 14 14 14 14 14 14 14 15 16 17 20 22 23 23 24 23 21 19 20 20 16 14 14 16 19 22 23 23 24 25 25 24 24 22 21 22 23 23 25 27 28
15 15 15 15 15 16 16 15 16 17 18 19 21 22 23 24 24 22 20 19 19 18 15 14 15 17 20 21 22 24 27 27 27 27 26 24 24 23 23 24 26 27
15 15 16 16 16 17 17 17 17 18 19 20 21 22 22 23 24 24 22 20 20 19 18 17 16 17 19 20 21 23 26 27 28 29 28 26 25 24 24 25 25 26
15 16 16 17 17 17 18 18 19 20 20 21 22 23 23 23 23 25 25 24 21 21 21 21 20 20 21 21 22 23 25 26 27 30 32 30 28 27 26 26 25 25
16 17 17 18 18 19 19 20 21 21 22 22 22 23 22 22 23 24 26 26 24 23 23 23 23 23 22 22 24 26 28 27 27 31 35 35 32 28 26 26 26 26
17 17 18 18 19 20 21 21 22 22 22 22 22 22 22 21 22 24 25 25 25 25 25 24 25 24 23 23 25 28 30 29 29 31 35 36 33 28 25 25 26 28
16 16 17 18 18 19 20 21 22 22 22 22 23 23 22 22 22 23 25 26 26 25 25 25 24 24 24 26 26 27 29 30 30 32 34 34 33 28 25 25 26 29
16 17 18 19 19 20 20 21 21 21 22 23 23 23 23 23 23 23 24 25 26 26 25 25 24 22 25 27 28 28 29 30 31 31 31 31 30 27 27 27 25 26
19 19 20 21 21 21 21 22 22 22 22 23 24 25 25 25 25 24 24 24 25 26 26 26 25 25 26 28 30 30 30 32 32 31 29 29 29 28 28 27 26 26
21 21 22 23 23 23 23 23 24 24 24 25 25 27 28 28 27 26 26 25 25 25 25 26 27 28 29 30 32 32 32 32 32 31 30 29 29 30 29 27 28 29
22 22 23 24 24 24 24 25 25 26 27 27 28 29 29 30 30 29 28 27 27 26 26 26 27 28 30 31 33 33 34 33 32 30 31 30 29 29 29 28 29 30
22 23 24 24 24 24 25 25 26 27 28 29 29 30 31 31 32 32 31 29 28 28 28 28 27 27 28 31 33 34 34 34 33 30 31 32 30 29 29 28 29 30
22 22 23 24 24 25 26 26 27 28 28 29 29 30 31 32 32 33 33 32 31 30 30 29 28 27 28 30 32 33 34 33 33 31 31 31 30 29 29 29 29 30
21 22 23 23 24 25 26 27 28 28 29 29 30 30 31 32 32 33 33 33 33 32 32 31 30 28 28 28 29 30 33 33 32 31 30 30 29 28 29 30 30 31
19 20 21 22 23 24 25 26 27 28 28 29 29 29 30 31 32 32 32 32 33 32 32 31 30 29 28 28 27 27 29 31 32 31 30 29 29 28 28 29 31 33
17 19 20 20 21 22 23 24 25 26 26 27 28 28 28 28 30 31 31 31 31 31 30 29 29 29 28 28 29 28 27 27 29 31 31 30 28 27 28 29 31 32
17 18 19 20 21 22 22 23 24 25 25 26 26 26 26 26 27 28 29 29 29 30 29 26 26 27 28 28 30 31 29 27 26 28 30 30 28 27 28 28 28 28
17 18 18 19 20 21 22 23 24 24 25 25 26 26 25 25 25 26 27 27 27 28 28 26 24 24 25 26 28 28 29 28 25 25 27 28 28 28 28 28 28 27
16 17 17 18 19 20 21 22 23 24 24 25 25 25 25 25 24 25 25 25 25 25 25 25 24 22 22 24 26 25 25 24 23 22 22 23 24 25 26 28 29 29
15 16 17 18 19 20 21 22 23 23 24 24 24 24 25 25 24 24 24 24 24 23 23 22 22 21 20 20 22 22 20 19 18 18 18 19 20 21 24 28 31 29
Wind_Direction
297 297 297 299 301 304 306 308 309 311 318 323 322 321 320 317 313 311 311 309 304 298 290 279 271 270 273 273 273 272 271 266 259 253 249 247 249 252 253 248 245 245
297 297 297 299 301 304 306 308 309 312 319 323 321 320 318 315 311 308 308 308 303 295 283 271 263 263 266 269 271 270 267 264 264 264 261 254 250 251 251 249 245 244
298 297 296 298 300 302 304 307 311 315 322 326 324 321 319 316 312 308 308 310 306 295 278 262 256 257 260 265 269 268 266 266 263 263 265 261 256 252 250 249 246 244
297 295 295 297 298 300 303 307 313 318 325 328 326 324 322 320 315 309 310 313 310 298 279 259 250 251 254 260 264 263 264 266 261 259 261 261 258 256 252 249 247 246
294 293 293 295 295 297 302 308 315 320 325 326 326 325 324 323 319 311 309 314 313 300 281 261 249 249 252 257 260 261 261 262 260 257 259 260 259 257 255 254 251 248
292 292 291 290 290 293 299 307 314 319 322 324 325 326 325 324 322 314 308 312 315 303 281 265 255 253 255 256 258 261 263 263 262 257 256 259 260 256 254 255 253 249
289 290 288 285 286 290 296 304 312 317 321 322 324 325 325 325 323 317 310 309 310 303 283 269 261 256 258 259 259 262 263 262 262 259 254 254 258 258 257 256 254 250
284 284 282 281 283 287 293 301 308 315 320 321 323 324 323 323 323 319 311 302 300 300 289 274 265 258 256 259 261 262 262 260 260 263 261 257 258 263 264 259 256 252
276 276 277 278 280 285 291 297 305 311 315 318 320 321 320 320 320 319 314 304 295 293 288 277 266 257 255 258 262 265 266 263 261 264 266 262 261 265 265 260 258 257
271 272 275 278 280 285 288 293 300 305 309 312 315 318 319 318 317 317 316 312 301 291 285 279 270 261 258 260 264 267 270 272 268 266 265 263 261 262 262 263 262 260
274 275 279 282 285 288 290 293 297 300 304 307 310 314 316 315 316 315 316 316 310 298 289 283 279 275 270 267 268 267 268 272 272 268 266 264 263 262 264 270 270 263
279 281 284 287 289 291 292 294 296 298 301 303 306 310 311 311 312 312 314 316 313 306 297 289 285 286 282 275 271 267 267 269 270 269 269 268 267 266 267 272 271 264
282 284 286 289 291 292 293 294 295 297 299 301 304 306 307 308 309 310 312 314 314 312 306 298 292 288 282 277 272 268 267 267 266 267 270 271 272 272 272 271 268 266
288 291 292 293 294 295 295 295 295 295 297 300 303 304 304 305 306 307 309 311 312 313 311 308 303 292 280 275 273 270 268 268 267 267 269 272 272 272 271 270 270 269
294 296 298 298 298 297 297 296 295 296 297 300 302 303 304 303 304 304 304 305 307 309 310 310 307 299 289 282 277 275 272 269 270 272 272 272 271 269 267 267 267 266
296 297 299 299 298 297 296 295 295 296 297 299 301 302 302 302 302 303 302 302 302 303 305 305 304 302 299 291 283 278 274 270 270 272 273 270 268 267 266 266 265 264
295 296 297 296 295 295 294 294 295 296 297 299 300 300 301 301 302 302 302 302 300 300 301 301 302 302 300 296 288 280 276 273 270 269 269 269 267 266 266 266 265 265
294 294 294 293 292 292 292 291 292 294 295 297 298 299 299 300 301 301 302 302 301 301 300 300 301 301 300 298 293 284 279 275 271 267 266 267 267 266 265 263 262 263
292 292 291 291 290 290 290 290 291 292 293 295 296 298 299 299 301 301 302 303 303 303 303 302 302 302 301 300 296 288 281 277 275 271 267 266 265 266 266 262 259 260
292 292 291 291 291 291 291 291 292 293 293 294 296 297 299 299 300 301 301 302 302 303 304 305 305 304 303 302 300 292 284 279 277 274 270 267 265 264 265 264 260 259
298 296 296 296 296 295 295 295 295 295 295 296 297 298 299 299 299 300 301 300 301 303 305 306 306 306 304 304 303 298 289 282 278 276 272 268 265 262 263 264 262 260
305 303 302 303 302 301 301 299 299 299 298 299 300 300 301 300 299 300 300 300 300 301 303 305 306 305 304 302 302 302 296 287 279 276 272 267 264 262 261 263 262 259
310 309 307 306 305 305 304 303 302 301 301 301 301 302 303 302 300 300 300 300 299 298 299 301 301 300 300 298 298 299 299 294 285 277 272 268 264 260 259 261 260 256
314 313 311 309 308 307 306 306 305 304 303 302 302 303 305 304 303 301 301 302 302 300 300 300 300 299 297 296 295 295 296 297 291 280 272 266 263 261 260 262 260 254
317 317 316 315 314 313 312 311 309 308 308 307 306 307 308 308 308 306 306 306 305 304 305 305 306 305 304 302 299 296 296 298 297 289 276 266 262 260 260 262 258 250
319 319 320 319 319 318 317 316 314 313 311 310 310 310 310 312 312 311 311 311 310 309 307 307 309 312 315 314 309 308 311 310 309 301 283 269 266 264 264 265 258 248
Height
3132 3131 3130 3129 3128 3128 3127 3126 3126 3125 3125 3125 3123 3123 3122 3121 3120 3120 3120 3120 3119 3119 3118 3119 3119 3119 3118 3117 3116 3117 3117 3117 3117 3117 3117 3117 3118 3119 3120 3121 3122 3123
3130 3129 3128 3128 3127 3126 3126 3125 3124 3124 3124 3124 3122 3120 3120 3119 3118 3117 3117 3117 3116 3115 3115 3115 3116 3116 3116 3115 3114 3115 3116 3115 3115 3115 3114 3114 3114 3115 3117 3118 3119 3119
3128 3127 3127 3126 3125 3125 3124 3124 3123 3122 3122 3122 3120 3119 3118 3117 3116 3116 3115 3114 3112 3111 3111 3111 3112 3113 3114 3113 3112 3112 3113 3112 3112 3112 3112 3111 3111 3111 3113 3114 3115 3115
3127 3126 3125 3125 3124 3124 3123 3122 3122 3121 3120 3119 3118 3117 3116 3114 3114 3113 3112 3111 3108 3107 3106 3107 3109 3110 3111 3111 3110 3110 3110 3109 3109 3109 3109 3109 3109 3108 3109 3110 3110 3111
3125 3124 3124 3123 3123 3122 3122 3121 3121 3120 3119 3118 3117 3115 3114 3113 3112 3110 3109 3108 3106 3104 3104 3104 3106 3108 3108 3108 3108 3107 3107 3106 3106 3106 3106 3106 3106 3106 3106 3106 3106 3107
3124 3123 3122 3122 3122 3121 3120 3120 3119 3119 3118 3116 3115 3114 3112 3111 3110 3109 3107 3106 3104 3103 3102 3103 3104 3105 3106 3106 3105 3105 3105 3105 3104 3103 3103 3103 3103 3103 3103 3102 3103 3103
3122 3121 3121 3121 3120 3119 3119 3118 3118 3117 3116 3115 3114 3112 3111 3110 3109 3108 3106 3104 3103 3102 3101 3101 3101 3102 3103 3103 3103 3103 3103 3103 3102 3102 3101 3100 3100 3100 3100 3100 3099 3100
3121 3120 3120 3119 3119 3118 3117 3116 3116 3115 3115 3114 3112 3111 3109 3108 3107 3106 3104 3103 3102 3101 3100 3099 3098 3098 3099 3100 3100 3100 3100 3100 3100 3100 3100 3098 3097 3097 3098 3097 3096 3097
3119 3119 3118 3118 3117 3116 3115 3114 3114 3113 3112 3111 3110 3109 3108 3106 3105 3103 3102 3101 3100 3098 3098 3097 3096 3096 3096 3097 3098 3098 3098 3098 3097 3098 3098 3096 3094 3094 3095 3095 3094 3094
3118 3117 3117 3116 3115 3114 3113 3112 3112 3111 3110 3109 3108 3107 3106 3104 3103 3101 3100 3099 3098 3096 3095 3094 3093 3093 3093 3094 3095 3095 3095 3095 3095 3095 3095 3094 3092 3091 3091 3091 3092 3092
3116 3115 3114 3114 3113 3112 3111 3110 3110 3109 3108 3107 3106 3105 3104 3102 3101 3099 3097 3096 3095 3094 3092 3091 3091 3091 3091 3091 3092 3092 3091 3091 3092 3092 3092 3092 3090 3089 3088 3089 3090 3090
3113 3113 3112 3111 3110 3109 3108 3108 3107 3106 3106 3105 3104 3103 3102 3100 3099 3097 3095 3094 3093 3091 3090 3089 3089 3089 3089 3088 3088 3087 3087 3087 3087 3087 3088 3089 3088 3087 3087 3087 3087 3087
3111 3111 3110 3109 3108 3107 3106 3105 3105 3104 3103 3102 3101 3100 3099 3098 3096 3095 3093 3091 3090 3089 3087 3086 3087 3087 3086 3084 3082 3082 3082 3082 3082 3083 3084 3084 3084 3085 3085 3085 3084 3084
3109 3108 3108 3107 3106 3105 3104 3103 3102 3101 3100 3099 3098 3097 3096 3095 3094 3092 3091 3089 3087 3086 3085 3084 3083 3083 3081 3079 3077 3077 3077 3077 3078 3078 3079 3080 3081 3082 3081 3080 3081 3081
3106 3105 3105 3104 3103 3102 3101 3100 3099 3098 3097 3096 3095 3094 3093 3092 3090 3089 3088 3087 3085 3083 3082 3081 3080 3078 3077 3075 3074 3074 3074 3074 3074 3074 3075 3076 3076 3076 3076 3076 3076 3076
3103 3103 3102 3101 3101 3100 3099 3097 3096 3095 3094 3093 3092 3090 3089 3088 3086 3085 3084 3083 3082 3080 3079 3078 3076 3075 3073 3071 3070 3069 3069 3070 3071 3071 3070 3071 3071 3071 3071 3072 3071 3071
3101 3100 3099 3099 3098 3097 3096 3095 3093 3092 3091 3090 3088 3087 3085 3084 3082 3081 3080 3079 3078 3076 3075 3074 3073 3072 3070 3067 3066 3065 3065 3065 3066 3066 3066 3066 3066 3066 3067 3068 3067 3066
3099 3098 3097 3096 3095 3094 3093 3092 3090 3089 3088 3086 3085 3083 3082 3080 3078 3077 3075 3074 3073 3072 3071 3070 3069 3068 3066 3063 3061 3060 3060 3060 3060 3061 3062 3061 3061 3062 3063 3063 3063 3061
3096 3095 3094 3093 3092 3091 3090 3089 3087 3086 3085 3083 3082 3080 3078 3076 3074 3073 3071 3070 3069 3067 3066 3065 3064 3063 3062 3059 3057 3055 3055 3055 3055 3056 3057 3057 3057 3058 3058 3059 3058 3058
3093 3092 3091 3090 3089 3088 3086 3085 3084 3083 3081 3080 3078 3077 3075 3073 3071 3069 3068 3066 3064 3063 3062 3061 3060 3058 3057 3056 3054 3052 3050 3050 3051 3052 3052 3052 3053 3053 3053 3054 3054 3055
3090 3089 3088 3087 3086 3084 3083 3082 3081 3079 3078 3076 3075 3073 3072 3070 3068 3066 3064 3063 3061 3060 3058 3057 3056 3055 3053 3051 3050 3049 3047 3046 3046 3047 3048 3048 3048 3049 3049 3049 3050 3050
3088 3087 3086 3084 3083 3082 3080 3079 3078 3076 3075 3073 3072 3070 3068 3067 3065 3063 3061 3059 3058 3056 3055 3054 3053 3052 3050 3048 3046 3045 3044 3043 3043 3042 3043 3043 3044 3044 3044 3045 3045 3046
3086 3085 3084 3082 3081 3079 3078 3076 3075 3073 3072 3070 3069 3067 3065 3064 3062 3060 3058 3056 3055 3053 3052 3052 3051 3049 3047 3045 3043 3041 3040 3040 3039 3038 3038 3039 3040 3040 3040 3041 3042 3042
3084 3083 3082 3080 3079 3077 3076 3074 3073 3071 3069 3068 3066 3064 3062 3061 3059 3057 3055 3053 3052 3050 3049 3048 3047 3046 3044 3042 3041 3039 3037 3036 3036 3035 3034 3035 3036 3036 3036 3037 3039 3040
3082 3081 3080 3078 3077 3076 3074 3072 3070 3069 3067 3065 3063 3062 3060 3058 3056 3054 3052 3051 3049 3047 3046 3045 3044 3043 3042 3040 3038 3036 3035 3033 3032 3032 3031 3031 3032 3033 3033 3034 3034 3036
3081 3080 3078 3077 3076 3074 3072 3070 3068 3067 3065 3063 3061 3059 3057 3055 3054 3052 3050 3049 3047 3045 3044 3043 3042 3040 3039 3038 3036 3034 3033 3032 3030 3030 3030 3029 3030 3030 3031 3030 3030 3031